Flag for Canada Weather past 2 weeks in Fort Simpson, Northwest Territories, Canada

Now
55 °F

Partly sunny.


Feels Like: 54 °F
Forecast: 56 / 67 °F
Wind: 6 mph from East

Location: Fort Simpson

Current Time: Jul 28, 2015 at 7:58:35 AM

Latest Report: Jul 28, 2015 at 7:00 AM


Visibility: 15 mi

Pressure: 29.70 "Hg

Humidity: 82%

Dew point: 50 °F

Location of Fort SimpsonLocation

Historic Weather in Fort Simpson — Graph

°F

Fort Simpson temperature yesterday

Maximum temperature yesterday: 77 °F (at 3:00 PM)
Minimum temperature yesterday: 55 °F (at 5:00 AM)
Average temperature yesterday: 66 °F

Past Weeks' High & Low Weather Summary

 TemperatureHumidityPressure
High81 °F (Jul 17, 7:00 PM)100% (Jul 13, 7:00 AM)30.02 "Hg (Jul 13, 7:00 AM)
Low46 °F (Jul 17, 6:00 AM)32% (Jul 17, 7:00 PM)29.56 "Hg (Jul 15, 12:00 PM)
Average62 °F75%29.75 "Hg
* Reported Jul 13 6:00 AM — Jul 28 6:00 AM, Fort Simpson, Weather by CustomWeather, © 2015

Note: Actual official high and low records may vary slightly from our data, if they occured in-between our weather recording intervals... More about our weather records

Advertising

Fort Simpson weather history for previous 24 hours

 ConditionsComfort  
Time TempWeatherWind HumidityBarometerVisibility
6:00 AM
Tue, Jul 28
55 °FPassing clouds.6 mph82%29.70 "Hg15 mi
5:00 AM57 °FPassing clouds.5 mph77%29.70 "Hg15 mi
4:00 AM59 °FPassing clouds.3 mph72%29.69 "Hg15 mi
3:00 AM61 °FPassing clouds.6 mph68%29.68 "Hg15 mi
2:00 AM61 °FPassing clouds.6 mph72%29.68 "Hg15 mi
1:00 AM63 °FPassing clouds.6 mph73%29.67 "Hg15 mi
12:00 AM66 °FPassing clouds.6 mph68%29.67 "Hg15 mi
11:00 PM
Mon, Jul 27
68 °FPassing clouds.No wind60%29.67 "Hg15 mi
10:00 PM70 °FScattered clouds.6 mph57%29.67 "Hg15 mi
9:00 PM73 °FScattered clouds.7 mph53%29.67 "Hg15 mi
8:00 PM73 °FScattered clouds.7 mph53%29.67 "Hg15 mi
7:00 PM73 °FBroken clouds.7 mph53%29.67 "Hg15 mi
6:00 PM72 °FBroken clouds.9 mph57%29.69 "Hg15 mi
5:00 PM70 °FThunderstorms. Partly sunny.17 mph60%29.68 "Hg15 mi
4:00 PM75 °FPartly sunny.5 mph47%29.66 "Hg15 mi
3:00 PM77 °FPartly sunny.10 mph44%29.67 "Hg15 mi
2:00 PM75 °FBroken clouds.6 mph54%29.69 "Hg15 mi
1:00 PM73 °FScattered clouds.10 mph57%29.71 "Hg15 mi
12:00 PM72 °FScattered clouds.7 mph61%29.71 "Hg15 mi
11:00 AM68 °FPassing clouds.8 mph64%29.72 "Hg15 mi
10:00 AM64 °FPassing clouds.7 mph73%29.73 "Hg15 mi
9:00 AM63 °FPassing clouds.3 mph77%29.74 "Hg15 mi
8:00 AM59 °FPassing clouds.6 mph82%29.75 "Hg15 mi
7:00 AM55 °FPassing clouds.3 mph94%29.74 "Hg15 mi
Weather by CustomWeather, © 2015

See weather overviewHow to use our weather pages